Weather History for Pinedale, WY

Change the Weather History Date:

Monday, March 4, 2013

  Actual Average (KBPI) Record (KBPI)
Temperature  
Mean Temperature 17 °F 22 °F  
Max Temperature 26 °F 36 °F 55 °F (1994)
Min Temperature 8 °F 8 °F -23 °F (1993)
Degree Days  
Heating Degree Days 48 43  
Month to date heating degree days 176  
Since 1 July heating degree days 7699  
Cooling Degree Days 0 0  
Month to date cooling degree days 0  
Year to date cooling degree days 0  
Moisture  
Dew Point 6 °F    
Average Humidity 56    
Maximum Humidity 79    
Minimum Humidity 37    
Precipitation  
Precipitation 0.00 in 0.01 in 0.07 in (1985)
Month to date precipitation 0.04  
Year to date precipitation 0.70  
Sea Level Pressure  
Sea Level Pressure 30.00 in    
Wind  
Wind Speed 14 mph (NW)    
Max Wind Speed 25 mph    
Max Gust Speed 31 mph    
Visibility 10 miles    
Events      
T = Trace of Precipitation, MM = Missing Value Source: NWS Daily Summary

Daily Weather History Graph

Daily Weather History Graph

Search for Another Location

Airport:

Trip Planner

Search our weather history database for the weather conditions in past years. The results will help you decide how hot, cold, wet, or windy it might be!

Date:

Astronomy

Mar. 04, 2013 Rise Set
Actual Time 6:49 AM MST 6:12 PM MST
Civil Twilight 6:21 AM MST 6:41 PM MST
Nautical Twilight 5:48 AM MST 7:13 PM MST
Astronomical Twilight 5:15 AM MST 7:46 PM MST
Moon 1:08 AM MST (3/4) 10:51 AM MST (3/4)
Length of Visible Light 12h 19m
Length of Day
11h 23m
Waning Gibbous, 51% of the Moon is Illuminated
Mar 4
Waning Gibbous
Mar 4
Last Quarter
Mar 11
New
Mar 19
First Quarter
Mar 27
Full

Hourly Weather History & Observations

Time (MST) Temp. Windchill Dew Point Humidity Pressure Visibility Wind Dir Wind Speed Gust Speed Precip Events Conditions
12:15 AM 26.6 °F 16.2 °F 17.6 °F 69% 29.84 in 10.0 mi NNW 11.5 mph 16.1 mph N/A   Overcast
12:35 AM 26.6 °F 16.8 °F 15.8 °F 64% 29.84 in 10.0 mi NNW 10.4 mph - N/A   Overcast
12:55 AM 26.6 °F 16.2 °F 12.2 °F 55% 29.84 in 10.0 mi NW 11.5 mph - N/A   Overcast
1:15 AM 24.8 °F 13.4 °F 10.4 °F 54% 29.83 in 10.0 mi NNW 12.7 mph 20.7 mph N/A   Overcast
1:35 AM 24.8 °F 13.4 °F 8.6 °F 50% 29.83 in 10.0 mi NNW 12.7 mph - N/A   Mostly Cloudy
1:55 AM 23.0 °F 11.7 °F 8.6 °F 54% 29.84 in 10.0 mi NNW 11.5 mph - N/A   Overcast
2:15 AM 23.0 °F 11.1 °F 8.6 °F 54% 29.83 in 10.0 mi NNW 12.7 mph - N/A   Overcast
2:35 AM 21.2 °F 8.9 °F 8.6 °F 58% 29.83 in 10.0 mi NNW 12.7 mph 17.3 mph N/A   Mostly Cloudy
2:55 AM 21.2 °F 7.8 °F 5.0 °F 50% 29.83 in 10.0 mi NW 15.0 mph - N/A   Mostly Cloudy
3:15 AM 21.2 °F 8.3 °F 5.0 °F 50% 29.84 in 10.0 mi NW 13.8 mph - N/A   Scattered Clouds
3:35 AM 21.2 °F 7.3 °F 8.6 °F 58% 29.84 in 10.0 mi NW 16.1 mph 21.9 mph N/A   Clear
3:55 AM 19.4 °F 7.2 °F 10.4 °F 68% 29.85 in 10.0 mi WNW 11.5 mph 17.3 mph N/A   Clear
4:15 AM 17.6 °F 6.4 °F 10.4 °F 73% 29.85 in 10.0 mi WNW 9.2 mph - N/A   Scattered Clouds
4:55 AM 19.4 °F 8.6 °F 12.2 °F 74% 29.85 in 10.0 mi West 9.2 mph - N/A   Mostly Cloudy
5:15 AM 17.6 °F 5.7 °F 12.2 °F 79% 29.87 in 10.0 mi West 10.4 mph - N/A   Scattered Clouds
5:35 AM 17.6 °F 5.7 °F 10.4 °F 73% 29.87 in 10.0 mi WNW 10.4 mph 18.4 mph N/A   Clear
5:55 AM 17.6 °F 2.7 °F 10.4 °F 73% 29.87 in 10.0 mi WNW 16.1 mph 21.9 mph N/A   Clear
6:15 AM 17.6 °F 1.7 °F 10.4 °F 73% 29.88 in 10.0 mi WNW 18.4 mph - N/A   Clear
6:35 AM 17.6 °F 2.7 °F 10.4 °F 73% 29.89 in 10.0 mi WNW 16.1 mph - N/A   Mostly Cloudy
6:55 AM 17.6 °F 3.7 °F 8.6 °F 68% 29.90 in 10.0 mi WNW 13.8 mph - N/A   Scattered Clouds
7:15 AM 17.6 °F 5.0 °F 10.4 °F 73% 29.91 in 10.0 mi WNW 11.5 mph - N/A   Scattered Clouds
7:35 AM 17.6 °F 3.2 °F 8.6 °F 68% 29.93 in 10.0 mi WNW 15.0 mph 20.7 mph N/A   Mostly Cloudy
7:55 AM 19.4 °F 6.0 °F 8.6 °F 63% 29.93 in 10.0 mi NW 13.8 mph - N/A   Mostly Cloudy
8:15 AM 19.4 °F 5.0 °F 6.8 °F 58% 29.95 in 10.0 mi NW 16.1 mph 20.7 mph N/A   Clear
8:35 AM 19.4 °F 3.2 °F 5.0 °F 54% 29.95 in 10.0 mi NW 20.7 mph 24.2 mph N/A   Clear
8:55 AM 19.4 °F 3.2 °F 3.2 °F 49% 29.96 in 10.0 mi NW 20.7 mph 29.9 mph N/A   Clear
9:15 AM 21.2 °F 4.2 °F 3.2 °F 46% 29.97 in 10.0 mi NNW 25.3 mph 29.9 mph N/A   Clear
9:35 AM 21.2 °F 5.2 °F 3.2 °F 46% 29.98 in 10.0 mi NW 21.9 mph 29.9 mph N/A   Clear
9:55 AM 21.2 °F 5.2 °F 3.2 °F 46% 29.98 in 10.0 mi NW 21.9 mph 29.9 mph N/A   Clear
10:15 AM 21.2 °F 4.9 °F 5.0 °F 50% 29.99 in 10.0 mi NW 23.0 mph - N/A   Clear
10:35 AM 23.0 °F 6.6 °F 5.0 °F 46% 30.00 in 10.0 mi NW 25.3 mph 29.9 mph N/A   Clear
10:55 AM 23.0 °F 7.6 °F 5.0 °F 46% 29.99 in 10.0 mi WNW 21.9 mph 29.9 mph N/A   Clear
11:15 AM 23.0 °F 8.0 °F 3.2 °F 43% 30.00 in 10.0 mi NW 20.7 mph 31.1 mph N/A   Clear
11:55 AM 23.0 °F 7.2 °F 3.2 °F 43% 30.01 in 10.0 mi NW 23.0 mph 29.9 mph N/A   Clear
12:15 PM 23.0 °F 7.2 °F 3.2 °F 43% 30.01 in 10.0 mi NW 23.0 mph 28.8 mph N/A   Scattered Clouds
12:35 PM 24.8 °F 10.0 °F 3.2 °F 40% 30.02 in 10.0 mi WNW 21.9 mph 29.9 mph N/A   Scattered Clouds
12:55 PM 24.8 °F 10.7 °F 3.2 °F 40% 30.02 in 10.0 mi WNW 19.6 mph 26.5 mph N/A   Clear
1:15 PM 24.8 °F 12.4 °F 3.2 °F 40% 30.02 in 10.0 mi WNW 15.0 mph 21.9 mph N/A   Scattered Clouds
1:35 PM 24.8 °F 10.3 °F 5.0 °F 43% 30.03 in 10.0 mi WNW 20.7 mph 26.5 mph N/A   Scattered Clouds
1:55 PM 24.8 °F 10.7 °F 5.0 °F 43% 30.03 in 10.0 mi NW 19.6 mph 25.3 mph N/A   Clear
2:15 PM 26.6 °F 13.1 °F 5.0 °F 40% 30.03 in 10.0 mi NW 19.6 mph 26.5 mph N/A   Clear
2:35 PM 26.6 °F 12.4 °F 5.0 °F 40% 30.05 in 10.0 mi WNW 21.9 mph 27.6 mph N/A   Clear
2:55 PM 26.6 °F 12.4 °F 5.0 °F 40% 30.05 in 10.0 mi WNW 21.9 mph 29.9 mph N/A   Clear
3:15 PM 26.6 °F 12.4 °F 5.0 °F 40% 30.06 in 10.0 mi WNW 21.9 mph 28.8 mph N/A   Clear
3:35 PM 26.6 °F 13.1 °F 5.0 °F 40% 30.07 in 10.0 mi WNW 19.6 mph 25.3 mph N/A   Clear
3:55 PM 26.6 °F 11.7 °F 3.2 °F 37% 30.08 in 10.0 mi WNW 24.2 mph 28.8 mph N/A   Scattered Clouds
4:15 PM 26.6 °F 13.1 °F 5.0 °F 40% 30.08 in 10.0 mi WNW 19.6 mph 25.3 mph N/A   Scattered Clouds
4:35 PM 26.6 °F 13.1 °F 5.0 °F 40% 30.08 in 10.0 mi WNW 19.6 mph - N/A   Clear
4:55 PM 24.8 °F 11.1 °F 5.0 °F 43% 30.09 in 10.0 mi WNW 18.4 mph - N/A   Clear
5:15 PM 24.8 °F 10.3 °F 3.2 °F 40% 30.08 in 10.0 mi WNW 20.7 mph - N/A   Clear
5:35 PM 23.0 °F 10.1 °F 5.0 °F 46% 30.09 in 10.0 mi WNW 15.0 mph 18.4 mph N/A   Clear
5:55 PM 23.0 °F 9.2 °F 5.0 °F 46% 30.10 in 10.0 mi WNW 17.3 mph - N/A   Clear
6:15 PM 21.2 °F 7.3 °F 5.0 °F 50% 30.11 in 10.0 mi WNW 16.1 mph - N/A   Clear
6:35 PM 21.2 °F 8.3 °F 5.0 °F 50% 30.12 in 10.0 mi WNW 13.8 mph - N/A   Clear
6:55 PM 21.2 °F 9.5 °F 5.0 °F 50% 30.13 in 10.0 mi WNW 11.5 mph - N/A   Clear
7:35 PM 19.4 °F 8.6 °F 6.8 °F 58% 30.13 in 10.0 mi NW 9.2 mph - N/A   Clear
7:55 PM 17.6 °F 12.3 °F 6.8 °F 63% 30.14 in 10.0 mi WNW 3.5 mph - N/A   Clear
8:15 PM 14.0 °F - 6.8 °F 73% 30.15 in 10.0 mi Calm Calm - N/A   Clear
8:35 PM 14.0 °F 5.1 °F 6.8 °F 73% 30.15 in 10.0 mi NNW 5.8 mph - N/A   Clear
8:55 PM 14.0 °F - 6.8 °F 73% 30.17 in 10.0 mi Calm Calm - N/A   Clear
9:15 PM 14.0 °F 5.1 °F 5.0 °F 67% 30.18 in 10.0 mi WNW 5.8 mph - N/A   Scattered Clouds
10:35 PM 10.4 °F 2.2 °F 3.2 °F 73% 30.19 in 10.0 mi WNW 4.6 mph - N/A   Scattered Clouds
10:55 PM 10.4 °F -0.4 °F 3.2 °F 73% 30.19 in 10.0 mi NW 6.9 mph - N/A   Scattered Clouds
11:15 PM 8.6 °F -1.3 °F 3.2 °F 79% 30.19 in 10.0 mi WNW 5.8 mph - N/A   Clear
11:35 PM 8.6 °F -1.3 °F 3.2 °F 79% 30.19 in 10.0 mi West 5.8 mph - N/A   Clear
11:55 PM 8.6 °F 0.1 °F 3.2 °F 79% 30.19 in 10.0 mi West 4.6 mph - N/A   Clear